This is the latest recevied weather packets stored in our database for station/object IN3MWE-10. If no packets are shown the sender has not sent any weather packets the latest 10 day(s).
| Time | Temp. | Humidity | Pressure | Rain* | Wind** | Luminosity | Snow |
|---|---|---|---|---|---|---|---|
| 1777561521 | 24.44° C | 24% | 983 hPa | - | - | - | - |
| 1777560621 | 25° C | 24% | 982.9 hPa | - | - | - | - |
| 1777559721 | 25.56° C | 23% | 983.1 hPa | - | - | - | - |
| 1777558821 | 25° C | 22% | 983.1 hPa | - | - | - | - |
| 1777557920 | 25° C | 23% | 983.3 hPa | - | - | - | - |
| 1777557020 | 25° C | 24% | 983.4 hPa | - | - | - | - |
| 1777556120 | 25.56° C | 23% | 983.5 hPa | - | - | - | - |
| 1777555220 | 26.11° C | 22% | 983.6 hPa | - | - | - | - |
| 1777554320 | 26.67° C | 21% | 983.7 hPa | - | - | - | - |
| 1777553420 | 26.11° C | 22% | 983.9 hPa | - | - | - | - |
| 1777552519 | 25.56° C | 22% | 984.2 hPa | - | - | - | - |
| 1777551619 | 27.22° C | 20% | 984.4 hPa | - | - | - | - |
| 1777550719 | 27.22° C | 20% | 984.8 hPa | - | - | - | - |
| 1777549819 | 28.33° C | 21% | 984.8 hPa | - | - | - | - |
| 1777548919 | 25.56° C | 25% | 985.2 hPa | - | - | - | - |
| 1777548019 | 24.44° C | 28% | 985.5 hPa | - | - | - | - |
| 1777547119 | 26.11° C | 26% | 985.6 hPa | - | - | - | - |
| 1777546219 | 26.67° C | 27% | 985.8 hPa | - | - | - | - |
| 1777545318 | 25° C | 28% | 986 hPa | - | - | - | - |
| 1777544418 | 27.78° C | 24% | 986.2 hPa | - | - | - | - |
| 1777543518 | 26.67° C | 25% | 986.3 hPa | - | - | - | - |
| 1777542618 | 24.44° C | 28% | 986.6 hPa | - | - | - | - |
| 1777541718 | 22.78° C | 31% | 986.7 hPa | - | - | - | - |
| 1777540818 | 23.33° C | 30% | 987 hPa | - | - | - | - |
| 1777539918 | 21.11° C | 35% | 987.1 hPa | - | - | - | - |
* Rain since midnight (hover to see other rain measurements)
** Current wind speed in m/s (hover to see current wind gust speed)